Weather History for Pensacola, FL

Change the Weather History Date:

Friday, September 13, 2013

  Actual Average Record
Temperature  
Mean Temperature 84 °F 79 °F  
Max Temperature 93 °F 87 °F 97 °F (1991)
Min Temperature 74 °F 71 °F 58 °F (1940)
Cooling Degree Days 19 14  
Month to date cooling degree days 233 198  
Year to date cooling degree days 2215 2165  
Growing Degree Days 32 (Base 50)    
Moisture  
Dew Point 70 °F    
Average Humidity 67    
Maximum Humidity 87    
Minimum Humidity 47    
Precipitation  
Precipitation 0.00 in 0.21 in 4.57 in (1959)
Month to date precipitation 1.02 2.61  
Year to date precipitation 57.47 47.38  
Sea Level Pressure  
Sea Level Pressure 29.89 in    
Wind  
Wind Speed 6 mph (WNW)    
Max Wind Speed 12 mph    
Max Gust Speed 14 mph    
Visibility 10 miles    
Events      
T = Trace of Precipitation, MM = Missing Value Source: NWS Daily Summary

Daily Weather History Graph

Daily Weather History Graph

Search for Another Location

Airport:

Trip Planner

Search our weather history database for the weather conditions in past years. The results will help you decide how hot, cold, wet, or windy it might be!

Date:

Astronomy

Sep. 13, 2013 Rise Set
Actual Time 6:32 AM CDT 6:56 PM CDT
Civil Twilight 6:08 AM CDT 7:20 PM CDT
Nautical Twilight 5:39 AM CDT 7:48 PM CDT
Astronomical Twilight 5:11 AM CDT 8:17 PM CDT
Moon 2:28 PM CDT (9/13) 12:19 AM CDT (9/13)
Length of Visible Light 13h 12m
Length of Day
12h 24m
First Quarter, 61% of the Moon is Illuminated
Sep 13
First Quarter
Sep 19
Full
Sep 26
Last Quarter
Oct 4
New
Oct 11
First Quarter

Hourly Weather History & Observations

Time (CDT) Temp. Heat Index Dew Point Humidity Pressure Visibility Wind Dir Wind Speed Gust Speed Precip Events Conditions
12:53 AM 78.1 °F - 70.0 °F 76% 29.94 in 10.0 mi Calm Calm - N/A   Clear
1:53 AM 77.0 °F - 70.0 °F 79% 29.93 in 10.0 mi Calm Calm - N/A   Clear
2:53 AM 75.9 °F - 70.0 °F 82% 29.91 in 10.0 mi NNW 3.5 mph - N/A   Clear
3:53 AM 75.9 °F - 70.0 °F 82% 29.90 in 10.0 mi Calm Calm - N/A   Clear
4:53 AM 75.0 °F - 70.0 °F 84% 29.90 in 10.0 mi NNW 4.6 mph - N/A   Clear
5:53 AM 75.0 °F - 70.0 °F 84% 29.91 in 10.0 mi NNW 5.8 mph - N/A   Clear
6:53 AM 73.9 °F - 70.0 °F 87% 29.91 in 9.0 mi NNW 5.8 mph - 0.01 in   Clear
7:53 AM 78.1 °F - 71.1 °F 79% 29.92 in 10.0 mi North 5.8 mph - N/A   Clear
8:53 AM 82.9 °F 88.0 °F 72.0 °F 69% 29.93 in 10.0 mi NW 9.2 mph - N/A   Clear
9:53 AM 84.9 °F 90.7 °F 72.0 °F 65% 29.94 in 10.0 mi NW 6.9 mph - N/A   Clear
10:53 AM 90.0 °F 96.9 °F 72.0 °F 55% 29.93 in 10.0 mi NNW 5.8 mph - N/A   Clear
11:53 AM 89.1 °F 92.1 °F 66.9 °F 48% 29.91 in 10.0 mi NNW 6.9 mph - N/A   Scattered Clouds
12:53 PM 89.1 °F 91.3 °F 66.0 °F 46% 29.90 in 10.0 mi Calm Calm - N/A   Mostly Cloudy
1:53 PM 90.0 °F 92.4 °F 66.0 °F 45% 29.87 in 10.0 mi Variable 3.5 mph - N/A   Mostly Cloudy
2:53 PM 90.0 °F 94.5 °F 69.1 °F 50% 29.84 in 10.0 mi SSW 6.9 mph - N/A   Mostly Cloudy
3:53 PM 90.0 °F 96.4 °F 71.1 °F 54% 29.83 in 10.0 mi SSW 6.9 mph - N/A   Scattered Clouds
4:53 PM 88.0 °F 94.7 °F 72.0 °F 59% 29.82 in 10.0 mi SSW 9.2 mph - N/A   Clear
5:53 PM 87.1 °F 92.8 °F 71.1 °F 59% 29.83 in 10.0 mi SW 9.2 mph - N/A   Clear
6:53 PM 84.9 °F 89.4 °F 70.0 °F 61% 29.83 in 10.0 mi West 8.1 mph - N/A   Clear
7:53 PM 84.0 °F 89.0 °F 71.1 °F 65% 29.84 in 10.0 mi WSW 6.9 mph - N/A   Clear
8:53 PM 82.9 °F 87.5 °F 71.1 °F 67% 29.86 in 10.0 mi WSW 6.9 mph - N/A   Clear
9:53 PM 82.9 °F 88.0 °F 72.0 °F 69% 29.87 in 10.0 mi West 5.8 mph - N/A   Mostly Cloudy
10:53 PM 82.0 °F 86.3 °F 71.1 °F 69% 29.87 in 10.0 mi WNW 6.9 mph - N/A   Partly Cloudy
11:53 PM 81.0 °F 85.2 °F 72.0 °F 74% 29.86 in 10.0 mi NW 5.8 mph - N/A   Scattered Clouds